{"data":{"norad_id":43655,"epoch":"2026-09-20T04:31:50.374272Z","epoch_age_seconds":66875,"freshness":"FRESH","line1":"1 43655U 18081A   26263.18877748  .00000010  00000+0  53103-4 0  9996","line2":"2 43655  99.3330 270.5231 0001783  57.3902 302.7422 13.79305788398020","mean_motion":13.79305788,"eccentricity":0.0001783,"inclination_deg":99.333,"raan_deg":270.5231,"arg_perigee_deg":57.3902,"mean_anomaly_deg":302.7422,"bstar":5.3103e-5,"rev_number":39802,"period_min":104.40034490742,"perigee_km":965.04051923491,"apogee_km":967.65956331383,"semimajor_km":7344.4870412744,"source":"CELESTRAK","updated_at":"2026-09-20T09:00:14.365681Z"}}